Location: Wolf Lake
(46.8518°N, 80.6381°W)
Time: 01:18:27
(UTC-05:00)

Tiangong - Visible Passes

Search period start: 23 February 2024 00:00
Search period end: 04 March 2024 00:00
Orbit: 375 x 387 km, 41.5° (Epoch: 22 February)

Date Brightness Start Highest point End Pass type
(mag) Time Alt. Az. Time Alt. Az. Time Alt. Az.
28 Feb 0.1 19:24:16 10° S 19:25:43 13° SSE 19:25:43 13° SSE visible
29 Feb -0.1 19:58:20 10° SW 19:59:49 19° SSW 19:59:49 19° SSW visible
01 Mar -0.2 18:57:41 10° SSW 18:59:49 17° SSE 19:01:40 11° ESE visible
01 Mar 0.8 20:33:17 10° WSW 20:33:47 13° SW 20:33:47 13° SW visible
02 Mar -0.8 19:32:13 10° SW 19:34:54 27° S 19:35:31 25° SSE visible
03 Mar -0.5 20:07:13 10° WSW 20:09:16 26° SSW 20:09:16 26° SSW visible
